User: anonymous   Login
Location: Unspecified
(0.0000°N, 0.0000°E)
Time: 06:08:36
(UTC+00:00)
Language:

TIANWANG 1A (TW-1A) - Orbit

View from above orbital plane
View from above orbital plane
View from above satellite
View from above satellite

Ground track
Ground track

The orbit data is extracted from the following two-line orbital elements,

1 40928U 15051D   17296.83468730  .00004844  00000-0  13484-3 0  9992
2 40928  97.2154 330.3269 0014350  93.6019 352.7847 15.37179395116453
Epoch (UTC): 23 October 2017 20:01:56
Eccentricity: 0.0014350
inclination: 97.2154°
perigee height: 444 km
apogee height: 464 km
right ascension of ascending node: 330.3269°
argument of perigee: 93.6019°
revolutions per day: 15.37179395
mean anomaly at epoch: 352.7847°
orbit number at epoch: 11645

The dashed part of the orbit path shows where the satellite is in the earth's shadow,  

DLR